KA1995 KSLC-KPVU

Flight info

Callsign KA1995
Flight time 0h 14m
Altitude VFR/055
Route /S/
Aircraft B350/L-VGD/C

Departure

Time 2026-04-19 04:39
Airport Salt Lake City International Airport (KSLC)

Arrival

Time 2026-04-19 04:53
Airport Provo Municipal Airport (KPVU)
Time Latitude Longitude Altitude Speed Heading
2026-04-19 04:34 40.77729 -111.95954 4234 ft 0 kts 20°
2026-04-19 04:36 40.77747 -111.96041 4234 ft 15 kts 195°
2026-04-19 04:36 40.77610 -111.96063 4236 ft 25 kts 181°
2026-04-19 04:37 40.77413 -111.96066 4236 ft 30 kts 179°
2026-04-19 04:37 40.77278 -111.96089 4235 ft 0 kts 251°
2026-04-19 04:37 40.77277 -111.96090 4235 ft 0 kts 251°
2026-04-19 04:38 40.77309 -111.96194 4233 ft 21 kts 329°
2026-04-19 04:38 40.77467 -111.96211 4237 ft 36 kts 359°
2026-04-19 04:39 40.78053 -111.96214 4252 ft 119 kts 360°
2026-04-19 04:39 40.78963 -111.96244 4503 ft 140 kts
2026-04-19 04:39 40.79972 -111.96282 4828 ft 150 kts
2026-04-19 04:39 40.81038 -111.96374 5086 ft 157 kts 357°
2026-04-19 04:40 40.82126 -111.96489 5407 ft 148 kts 357°
2026-04-19 04:40 40.83065 -111.96089 5598 ft 139 kts 39°
2026-04-19 04:40 40.83635 -111.95091 5510 ft 138 kts 68°
2026-04-19 04:40 40.83699 -111.93854 5491 ft 139 kts 103°
2026-04-19 04:41 40.83196 -111.92451 5431 ft 179 kts 135°
2026-04-19 04:41 40.82064 -111.91679 5400 ft 219 kts 171°
2026-04-19 04:41 40.80415 -111.91516 5200 ft 243 kts 182°
2026-04-19 04:41 40.78795 -111.91652 5352 ft 224 kts 188°
2026-04-19 04:42 40.77273 -111.91764 5206 ft 217 kts 182°
2026-04-19 04:42 40.75833 -111.91754 5343 ft 202 kts 182°
2026-04-19 04:42 40.74428 -111.91788 5293 ft 199 kts 178°
2026-04-19 04:42 40.73075 -111.91672 5341 ft 194 kts 175°
2026-04-19 04:43 40.71726 -111.91348 5128 ft 201 kts 170°
2026-04-19 04:43 40.70351 -111.90948 4950 ft 203 kts 168°
2026-04-19 04:43 40.68974 -111.90528 4826 ft 202 kts 168°
2026-04-19 04:43 40.67628 -111.90143 4867 ft 195 kts 169°
2026-04-19 04:44 40.66310 -111.89774 4880 ft 199 kts 169°
2026-04-19 04:44 40.64941 -111.89404 4890 ft 202 kts 171°
2026-04-19 04:44 40.63539 -111.89145 4888 ft 206 kts 174°
2026-04-19 04:44 40.62033 -111.88948 4895 ft 228 kts 178°
2026-04-19 04:45 40.60397 -111.88895 4896 ft 241 kts 181°
2026-04-19 04:45 40.58694 -111.88923 4893 ft 248 kts 182°
2026-04-19 04:45 40.56983 -111.88979 4894 ft 244 kts 182°
2026-04-19 04:45 40.55290 -111.89061 4882 ft 243 kts 184°
2026-04-19 04:46 40.53605 -111.89149 4880 ft 242 kts 184°
2026-04-19 04:46 40.51970 -111.89309 5301 ft 223 kts 188°
2026-04-19 04:46 40.50436 -111.89627 4891 ft 251 kts 195°
2026-04-19 04:46 40.48765 -111.90416 5162 ft 240 kts 207°
2026-04-19 04:47 40.47295 -111.91439 5317 ft 245 kts 213°
2026-04-19 04:47 40.45807 -111.92475 5571 ft 242 kts 204°
2026-04-19 04:47 40.44249 -111.93322 5753 ft 239 kts 204°
2026-04-19 04:47 40.42705 -111.94068 5855 ft 244 kts 202°
2026-04-19 04:48 40.41070 -111.94740 6207 ft 228 kts 185°
2026-04-19 04:48 40.39604 -111.94453 6756 ft 219 kts 159°
2026-04-19 04:48 40.38138 -111.93732 7014 ft 225 kts 154°
2026-04-19 04:48 40.36675 -111.93032 7298 ft 229 kts 171°
2026-04-19 04:49 40.35056 -111.92791 7540 ft 231 kts 163°
2026-04-19 04:49 40.33842 -111.91497 7710 ft 241 kts 126°
2026-04-19 04:49 40.32951 -111.89577 7808 ft 248 kts 118°
2026-04-19 04:49 40.32353 -111.87424 7538 ft 251 kts 107°
2026-04-19 04:50 40.31927 -111.85246 7458 ft 243 kts 105°
2026-04-19 04:50 40.31572 -111.83116 7161 ft 235 kts 105°
2026-04-19 04:50 40.30889 -111.81251 7026 ft 224 kts 124°
2026-04-19 04:50 40.29926 -111.79612 6492 ft 231 kts 133°
2026-04-19 04:51 40.28759 -111.78119 5981 ft 230 kts 141°
2026-04-19 04:51 40.27479 -111.76866 5377 ft 234 kts 147°
2026-04-19 04:51 40.26537 -111.76125 5192 ft 233 kts 152°
2026-04-19 04:51 40.25260 -111.75126 5087 ft 185 kts 148°
2026-04-19 04:52 40.24264 -111.74283 4927 ft 169 kts 146°
2026-04-19 04:52 40.23313 -111.73481 4675 ft 151 kts 149°
2026-04-19 04:52 40.22515 -111.72790 4509 ft 123 kts 147°
2026-04-19 04:52 40.22001 -111.72336 4501 ft 55 kts 146°
2026-04-19 04:53 40.21700 -111.72070 4499 ft 60 kts 147°
2026-04-19 04:53 40.21363 -111.71779 4499 ft 55 kts 146°
2026-04-19 04:53 40.21105 -111.71530 4497 ft 19 kts 106°
2026-04-19 04:53 40.21143 -111.71400 4499 ft 19 kts 29°
2026-04-19 04:54 40.21199 -111.71416 4498 ft 0 kts 326°